Regional Weather Roundup
Issued by NWS

Home | Current Version | Previous Version | Text Only | Print | Product List | Glossary Off
Versions: 1 2 3 4 5 6 7 8 9 10 11 12 13 14 15 16 17 18 19 20 21 22 23 24 25 26 27 28 29 30 31 32 33 34 35 36 37 38 39 40 41 42 43 44 45 46 47 48 49 50

000
ASUS43 KMKX 231610
RWRWI

WISCONSIN REGIONAL WEATHER ROUNDUP
NATIONAL WEATHER SERVICE MILWAUKEE/SULLIVAN WI
1100 AM CDT WED JUL 23 2014

NOTE: "FAIR" INDICATES FEW OR NO CLOUDS BELOW 12,000 FEET WITH NO
SIGNIFICANT WEATHER AND/OR OBSTRUCTIONS TO VISIBILITY.

WIZ001-002-006>008-014>016-023>028-231700-
NORTHWEST WISCONSIN

CITY           SKY/WX    TMP DP  RH WIND       PRES   REMARKS
SUPERIOR ARPT  MOSUNNY   71  58  63 E5        30.24S
ASHLAND        MOSUNNY   69  58  67 NE6       30.25S
HAYWARD        MOSUNNY   71  54  54 N6        30.25S
SIREN          MOSUNNY   72  55  55 CALM      30.24F
RICE LAKE      SUNNY     72  55  54 NW6       30.25S
LADYSMITH      MOSUNNY   72  59  63 CALM      30.25F
EAU CLAIRE     SUNNY     76  56  49 VRB3      30.22S
MENOMONIE      SUNNY     76  56  48 CALM      30.23S
NEW RICHMOND   MOSUNNY   75  54  48 NW6       30.24S
OSCEOLA        MOSUNNY   73  58  59 NW3       30.26F
$$

WIZ003>005-009-010-017-018-231700-
NORTH CENTRAL WISCONSIN

CITY           SKY/WX    TMP DP  RH WIND       PRES   REMARKS
WOODRUFF       CLOUDY    72  59  64 CALM      30.25S
RHINELANDER    PTSUNNY   67  52  58 VRB7      30.26S
EAGLE RIVER    PTSUNNY   64  49  59 CALM      30.25S
LAND O LAKES   CLOUDY    64  51  64 NW3       30.26F
PHILLIPS       PTSUNNY   67  56  69 NE3       30.24F
TOMAHAWK       MOSUNNY   65  54  65 N6        30.25F
MEDFORD        MOSUNNY   67  57  69 NW3       30.24F
MERRILL        MOSUNNY   68  55  63 NE6       30.24S
$$

WIZ029-030-035-036-043>047-231700-
CENTRAL WISCONSIN

CITY           SKY/WX    TMP DP  RH WIND       PRES   REMARKS
WAUSAU         MOSUNNY   70  54  56 VRB7      30.22S
MOSINEE        PTSUNNY   70  57  64 NE8       30.25S
MARSHFIELD       N/A     72  56  57 N8        30.23S
STEVENS POINT  MOSUNNY   68  54  60 N6        30.23S
WAUPACA        SUNNY     74  50  42 NE7       30.22S
WAUTOMA        MOSUNNY   73  54  51 N7        30.22S
WISC RAPIDS    SUNNY     73  55  53 VRB6      30.24S
CAMP DOUGLAS   MOSUNNY   73  59  60 VRB2      30.23S
$$

WIZ011>013-019>022-031-037>040-048>050-231700-
NORTHEAST WISCONSIN

CITY           SKY/WX    TMP DP  RH WIND       PRES   REMARKS
ANTIGO         SUNNY     66  51  59 N10       30.25S
STURGEON BAY   SUNNY     64  52  63 N14G22    30.20F
GREEN BAY      SUNNY     71  51  49 N10       30.19F
MANITOWOC      SUNNY     69  51  52 N13       30.18F
APPLETON       MOSUNNY   68  48  49 N8        30.21F
CLINTONVILLE   SUNNY     70  46  43 N9        30.21F
OSHKOSH        SUNNY     71  54  54 NE13      30.19F
$$

WIZ032>034-041-042-053>061-231700-
SOUTHWEST WISCONSIN

CITY           SKY/WX    TMP DP  RH WIND       PRES   REMARKS
LA CROSSE      MOSUNNY   77  58  51 VRB3      30.22F
SPARTA         MOSUNNY   72  54  52 N3        30.24F
VIROQUA        FAIR      73  57  58 NE7       30.24F
BOSCOBEL       MOSUNNY   77  56  48 VRB3      30.23S
PRAIRIE DU CHI SUNNY     74  52  45 NE10      30.22S
PLATTEVILLE    FAIR      74  55  52 NE9       30.23S
$$

WIZ056-057-062-063-064-067-068-231700-
SOUTH CENTRAL WISCONSIN

CITY           SKY/WX    TMP DP  RH WIND       PRES   REMARKS
BARABOO/DELLS  MOSUNNY   71  52  50 N5        30.23R
LONE ROCK      MOSUNNY   78  58  49 NE5       30.22R
WATERTOWN      PTSUNNY   70  58  64 N8        30.19S
MADISON        MOSUNNY   75  56  51 NE14      30.20S
MIDDLETON      FAIR      74  54  48 N10G16    30.22R
MONROE         MOSUNNY   72  55  56 NE14G21   30.20S
JANESVILLE     MOSUNNY   73  52  46 N12G18    30.18S
$$

WIZ051-052-058>065-066-070>072-231700-
SOUTHEAST WISCONSIN

CITY           SKY/WX    TMP DP  RH WIND       PRES   REMARKS
MILWAUKEE      MOSUNNY   66  55  67 N16G23    30.18S
WAUKESHA       MOSUNNY   70  52  52 NE12      30.20R
MILWAUKEE/TIMM SUNNY     68  52  56 NE10      30.19S
RACINE         SUNNY     66  57  72 N18       30.19S
BURLINGTON     MOSUNNY   69  55  60 N9G16     30.18S
KENOSHA        SUNNY     69  54  58 N16G25    30.18S
FOND DU LAC    SUNNY     71  52  50 NE12      30.21S
SHEBOYGAN      SUNNY     71  51  49 NE13G20   30.18S
WEST BEND      SUNNY     70  50  49 NE14G20   30.19R
JUNEAU         SUNNY     70  51  50 N9G16     30.22R
$$

LSZ147-162-231700-
LAKE SUPERIOR

STATION/POSITION TIME  TEMP    WIND        PRES    WAVE
                       AIR SEA DIR/SP/G            HT/PER
                 (UTC) (F)     (DEG/KT/KT) (MB)    (FT/S)
$$

LMZ867-665-643>646-231700-
LAKE MICHIGAN

STATION/POSITION TIME  TEMP    WIND        PRES    WAVE
                       AIR SEA DIR/SP/G            HT/PER
                 (UTC) (F)     (DEG/KT/KT) (MB)    (FT/S)
$$

TC  - TEMPERATURE IN CELSIUS
VSB - VISIBILITY IN STATUTE MILES
WCI - WIND CHILL INDEX
HX  - HEAT INDEX



USA.gov is the U.S. government's official web portal to all federal, state and local government web resources and services.